[[{"header":{"parameterUnit":"m.s-1","parameterCategory":1,"la1":30.2991,"la2":30.254,"lo1":-89.0895,"lo2":-89.0444,"dy":0.0017,"dx":0.0017,"nx":28,"ny":28,"refTime":"2025-06-05T09:00:00:Z","depth":0,"parameterNumber":2,"parameterNumberName":"U-component_of_WINDS"},"data":[0,0,0,0,0,0,0,0,0,0,0,0,0,0,0,0,0,0,0,0,0,0,0,0,0,0,0,0,0,0,0,0,0,0,0,0,0,0,0,0,0,0,0,0,0,0,0,0,0,0,0,0,0,0,0,0,0,0,-1.9519,-1.9519,0,-1.9569,-1.957,-1.957,-1.953,-1.9528,-1.9527,-1.9525,-1.9576,-1.9579,-1.9582,0,0,0,0,0,0,0,0,0,0,0,0,0,-1.9386,-1.9389,-1.9519,-1.9519,-1.952,-1.9569,-1.957,-1.9571,-1.9531,-1.9528,-1.9526,-1.9524,-1.9575,-1.9579,-1.9582,0,0,0,0,0,0,0,0,0,0,0,0,0,-1.9441,-1.9389,-1.9519,-1.9506,-1.9505,-1.9569,-1.957,-1.9571,-1.9531,-1.9528,-1.9526,-1.9523,-1.9574,-1.9579,-1.9583,-1.9662,0,0,-1.9597,-1.9598,0,0,0,0,0,0,0,0,-1.9438,-1.9446,-1.9507,-1.9507,-1.9506,-1.9541,-1.9542,-1.9601,-1.9532,-1.9521,-1.9525,-1.9522,-1.9567,-1.9571,-1.9587,-1.9664,-1.9666,-1.9597,-1.96,-1.9602,-1.9603,0,0,0,0,0,0,0,-1.9434,-1.9443,-1.9539,-1.9508,-1.9508,-1.9497,-1.9502,-1.9553,-1.9558,-1.9522,-1.9519,-1.9526,-1.9566,-1.9582,-1.9588,-1.9667,-1.9597,-1.9601,-1.9603,-1.9605,-1.981,-1.9813,0,0,0,0,0,0,-1.9432,-1.944,-1.9537,-1.954,-1.9465,-1.9502,-1.9507,-1.9532,-1.9557,-1.9558,-1.9528,-1.9524,-1.9576,-1.9582,-1.9589,-1.9682,-1.9601,-1.9606,-1.9608,-1.9807,-1.9811,-1.9814,0,0,0,0,0,0,-1.9429,-1.9441,-1.9535,-1.949,-1.9501,-1.9507,-1.9535,-1.9535,-1.9551,-1.9561,-1.9562,-1.9544,-1.9574,-1.9583,-1.9644,-1.9683,-1.9608,-1.9612,-1.9804,-1.9808,-1.9812,-1.9868,0,0,0,0,0,0,-1.9425,-1.944,-1.947,-1.9491,-1.9503,-1.9589,-1.9538,-1.9538,-1.9559,-1.9554,-1.9577,-1.9578,-1.9573,-1.9637,-1.9648,-1.9688,-1.9615,-1.98,-1.9806,-1.9811,-1.9863,-1.9874,-1.9883,0,0,0,0,0,-1.9421,-1.9484,-1.9472,-1.9484,-1.9542,-1.9592,-1.9599,-1.9592,-1.9562,-1.9593,-1.9599,-1.9577,-1.9677,-1.9644,-1.9656,-1.9697,-1.9798,-1.9804,-1.981,-1.9858,-1.9872,-1.9883,0,0,0,0,0,0,-1.9468,-1.9487,-1.9473,-1.9545,-1.9567,-1.9585,-1.9623,-1.9607,-1.9637,-1.9631,-1.9621,-1.9626,-1.969,-1.97,-1.9662,-1.9774,-1.9733,-1.9742,-1.9765,-1.9778,-1.9788,-1.9784,-1.9619,0,0,0,0,0,-1.9487,-1.9527,-1.9541,-1.9603,-1.9615,-1.9617,-1.9638,-1.9631,-1.9653,-1.9662,-1.9673,-1.9695,-1.9731,-1.9755,-1.9789,-1.9864,-1.9868,-1.9899,-1.9909,-1.9917,-1.9925,-1.9964,-1.9977,-1.9834,-1.9834,-1.9834,0,0,-1.9527,-1.9542,-1.9567,-1.9613,-1.9629,-1.9669,-1.9625,-1.967,-1.9699,-1.9669,-1.9727,-1.9736,-1.9759,-1.9827,-1.9858,-1.9837,-1.9965,-1.9925,-1.9932,-1.9935,-1.9971,-1.9985,-1.9997,-1.9838,-1.9838,-1.9837,0,0,-1.9619,-1.9635,-1.9688,-1.9705,-1.9729,-1.973,-1.9743,-1.9763,-1.9768,-1.9826,-1.9803,-1.9838,-1.9901,-1.9918,-1.9936,-2.0034,-2.0014,-2.0045,-2.0098,-2.0136,-2.0147,-2.0157,-2.019,-2.0203,-2.0053,-2.0053,-2.0053,0,-1.9665,-1.9725,-1.9717,-1.9763,-1.9783,-1.9758,-1.9811,-1.9828,-1.9862,-1.9876,-1.9853,-1.9931,-1.9945,-2.0016,-2.004,-2.0055,-2.0068,-2.0042,-2.0146,-2.0156,-2.0165,-2.0197,-2.021,-2.0056,-2.0056,-2.0056,-2.0055,0,-1.9779,-1.9822,-1.9861,-1.9895,-1.992,-1.9969,-1.9968,-1.9994,-1.9985,-1.9988,-2.0046,-2.0063,-2.0099,-2.0115,-2.0107,-2.0185,-2.0171,-2.0148,-2.0106,-2.0182,-2.0212,-2.0224,-2.0061,-2.006,-2.0059,-2.0058,0,0,-1.9903,-1.9931,-1.9946,-1.996,-1.9985,-2.0017,-2.0066,-2.0101,-2.0123,-2.0148,-2.0186,-2.024,-2.0218,-2.0237,-2.023,-2.0264,-2.0339,-2.0236,-2.0236,-2.0253,-2.0424,-2.0441,-2.0455,-2.0327,-2.0329,-2.0331,-2.0421,0,-1.9995,-2.0078,-2.0072,-2.0151,-2.0189,-2.0165,-2.0206,-2.0226,-2.023,-2.0263,-2.0267,-2.0305,-2.0273,-2.0285,-2.0317,-2.0323,-2.0373,-2.0316,-2.0362,-2.0363,-2.0355,-2.0471,-2.0489,-2.0573,-2.0433,-2.0435,-2.0437,0,-2.0113,-2.0142,-2.0224,-2.0242,-2.0258,-2.0296,-2.0327,-2.0359,-2.038,-2.0381,-2.0402,-2.039,-2.0437,-2.0395,-2.0459,-2.0421,-2.0439,-2.0445,-2.0448,-2.0451,-2.0404,-2.0475,-2.06,-2.0612,-2.0455,-2.0454,-2.0452,0,-2.0193,-2.0252,-2.0308,-2.0322,-2.0345,-2.0372,-2.0383,-2.0402,-2.0423,-2.045,-2.0464,-2.0497,-2.0514,-2.0539,-2.0535,-2.0505,-2.06,-2.0558,-2.0601,-2.0601,-2.0621,-2.062,-2.0749,-2.0636,-2.0636,-2.0635,-2.0635,0,-2.0295,-2.0346,-2.0344,-2.0379,-2.0435,-2.0427,-2.0483,-2.049,-2.0507,-2.0542,-2.0524,-2.0557,-2.0551,-2.0584,-2.0581,-2.0634,-2.0642,-2.0643,-2.0642,-2.0644,-2.0644,-2.0655,-2.0648,-2.0639,-2.0638,-2.0637,-2.0637,0,-2.0393,-2.0394,-2.0454,-2.0471,-2.0476,-2.0517,-2.0531,-2.0563,-2.0566,-2.0611,-2.0621,-2.0625,-2.0663,-2.0661,-2.0704,-2.0702,-2.0767,-2.0759,-2.0759,-2.0757,-2.0799,-2.0795,-2.0939,-2.0957,-2.0834,-2.0835,-2.0836,0,-2.0458,-2.0496,-2.0517,-2.054,-2.0552,-2.0588,-2.061,-2.0604,-2.0627,-2.0654,-2.0682,-2.0719,-2.0747,-2.0808,-2.0814,-2.0847,-2.0839,-2.0887,-2.0843,-2.0844,-2.0837,-2.0834,-2.0837,-2.0895,-2.0897,-2.0898,-2.0899,0,-2.0571,-2.057,-2.0602,-2.0634,-2.066,-2.0685,-2.0708,-2.0727,-2.0723,-2.075,-2.0788,-2.081,-2.0853,-2.0889,-2.092,-2.093,-2.0914,-2.0913,-2.0924,-2.0926,-2.0924,-2.0924,-2.0781,-2.0909,-2.0908,-2.0907,-2.0907,-2.0906,-2.0653,-2.0686,-2.0706,-2.0741,-2.0758,-2.0779,-2.081,-2.0817,-2.0849,-2.0883,-2.0878,-2.0921,-2.094,-2.098,-2.0993,-2.1026,-2.1008,-2.1025,-2.1029,-2.1033,-2.1037,-2.092,-2.1032,-2.1031,-2.1031,-2.1031,-2.1031,0,-2.0764,-2.0776,-2.0809,-2.0841,-2.0869,-2.0852,-2.0876,-2.09,-2.0938,-2.0958,-2.0986,-2.1029,-2.1063,-2.1073,-2.1105,-2.113,-2.1123,-2.1138,-2.1135,-2.1138,-2.1051,-2.1037,-2.1143,-2.1143,-2.1143,-2.1143,-2.1143,-2.1143,-2.0825,-2.0879,-2.088,-2.0941,-2.0952,-2.0993,-2.1008,-2.1028,-2.1043,-2.1093,-2.1121,-2.1127,-2.1142,-2.1176,-2.1206,-2.1208,-2.122,-2.1238,-2.1236,-2.1155,-2.1144,-2.1133,-2.112,-2.1241,-2.1241,-2.132,-2.132,-2.1321]},{"header":{"parameterUnit":"m.s-1","parameterCategory":1,"la1":30.2991,"la2":30.254,"lo1":-89.0895,"lo2":-89.0444,"dy":0.0017,"dx":0.0017,"nx":28,"ny":28,"refTime":"2025-06-05T09:00:00:Z","depth":0,"parameterNumber":3,"parameterNumberName":"V-component_of_WINDS"},"data":[0,0,0,0,0,0,0,0,0,0,0,0,0,0,0,0,0,0,0,0,0,0,0,0,0,0,0,0,0,0,0,0,0,0,0,0,0,0,0,0,0,0,0,0,0,0,0,0,0,0,0,0,0,0,0,0,0,0,-0.7087,-0.7088,0,-0.7181,-0.7182,-0.7183,-0.7241,-0.7241,-0.7242,-0.7242,-0.7336,-0.7339,-0.7341,0,0,0,0,0,0,0,0,0,0,0,0,0,-0.6956,-0.6958,-0.7087,-0.7088,-0.7089,-0.7181,-0.7182,-0.7183,-0.7241,-0.7241,-0.7242,-0.7242,-0.7336,-0.7338,-0.7341,0,0,0,0,0,0,0,0,0,0,0,0,0,-0.7028,-0.6959,-0.7087,-0.7129,-0.7134,-0.7181,-0.7182,-0.7184,-0.7241,-0.7241,-0.7242,-0.7242,-0.7335,-0.7338,-0.7341,-0.7353,0,0,-0.7352,-0.7353,0,0,0,0,0,0,0,0,-0.7023,-0.7032,-0.7122,-0.7126,-0.7132,-0.72,-0.7171,-0.724,-0.7241,-0.72,-0.7242,-0.7242,-0.7291,-0.7298,-0.7314,-0.7357,-0.7361,-0.7352,-0.7354,-0.7355,-0.7356,0,0,0,0,0,0,0,-0.7018,-0.7029,-0.7124,-0.7123,-0.7129,-0.7143,-0.7154,-0.7184,-0.7242,-0.7204,-0.7208,-0.7219,-0.7293,-0.7311,-0.7317,-0.7363,-0.7352,-0.7355,-0.7357,-0.7358,-0.742,-0.742,0,0,0,0,0,0,-0.7007,-0.7024,-0.7121,-0.7127,-0.7078,-0.7145,-0.7157,-0.7177,-0.7241,-0.7252,-0.7218,-0.7221,-0.7305,-0.7313,-0.732,-0.7338,-0.7355,-0.7359,-0.736,-0.742,-0.742,-0.742,0,0,0,0,0,0,-0.7004,-0.7015,-0.7117,-0.7077,-0.7091,-0.7147,-0.7169,-0.7179,-0.7197,-0.7252,-0.7263,-0.7225,-0.7305,-0.7316,-0.7345,-0.7342,-0.736,-0.7363,-0.7421,-0.742,-0.742,-0.7373,0,0,0,0,0,0,-0.7,-0.7014,-0.7019,-0.7077,-0.7093,-0.714,-0.7169,-0.7181,-0.7202,-0.7207,-0.7262,-0.7271,-0.7307,-0.7339,-0.7348,-0.7347,-0.7366,-0.7421,-0.7421,-0.742,-0.7375,-0.737,-0.7367,0,0,0,0,0,-0.6995,-0.7002,-0.7019,-0.703,-0.7101,-0.714,-0.7149,-0.719,-0.7202,-0.7207,-0.7243,-0.727,-0.7341,-0.7342,-0.7352,-0.7352,-0.7422,-0.7421,-0.742,-0.7376,-0.7371,-0.7367,0,0,0,0,0,0,-0.6942,-0.701,-0.703,-0.7055,-0.7091,-0.715,-0.7158,-0.7183,-0.7217,-0.7219,-0.7268,-0.728,-0.7304,-0.7331,-0.7331,-0.7366,-0.7384,-0.7385,-0.7347,-0.7343,-0.7339,-0.7332,-0.7369,0,0,0,0,0,-0.6933,-0.6959,-0.7018,-0.7034,-0.7052,-0.7101,-0.712,-0.7148,-0.7188,-0.7203,-0.7241,-0.7278,-0.7308,-0.7327,-0.7359,-0.7379,-0.7391,-0.7384,-0.738,-0.7377,-0.7377,-0.7389,-0.7386,-0.7417,-0.7417,-0.7417,0,0,-0.6915,-0.6955,-0.6969,-0.7025,-0.7056,-0.7082,-0.7114,-0.714,-0.716,-0.7207,-0.7237,-0.7266,-0.731,-0.7334,-0.7347,-0.7357,-0.7371,-0.7376,-0.7372,-0.7375,-0.7388,-0.7385,-0.7382,-0.7416,-0.7416,-0.7416,0,0,-0.6895,-0.6929,-0.6946,-0.6977,-0.7025,-0.7058,-0.7062,-0.7116,-0.7138,-0.7168,-0.7204,-0.7228,-0.728,-0.731,-0.7332,-0.7324,-0.7349,-0.7332,-0.7312,-0.7323,-0.7321,-0.7319,-0.7315,-0.7314,-0.7333,-0.7332,-0.7332,0,-0.6866,-0.6908,-0.6952,-0.6976,-0.6999,-0.7044,-0.7062,-0.709,-0.7144,-0.7159,-0.717,-0.7236,-0.7269,-0.7301,-0.7299,-0.7315,-0.7321,-0.7326,-0.7318,-0.7316,-0.7315,-0.7312,-0.7311,-0.733,-0.733,-0.7331,-0.7331,0,-0.687,-0.6898,-0.6906,-0.6958,-0.6983,-0.7003,-0.705,-0.707,-0.7096,-0.7128,-0.7158,-0.7199,-0.7239,-0.7249,-0.7275,-0.7285,-0.729,-0.7309,-0.7328,-0.7309,-0.7307,-0.7306,-0.7327,-0.7328,-0.7328,-0.7329,0,0,-0.6818,-0.6895,-0.6897,-0.6922,-0.6977,-0.6999,-0.7022,-0.7062,-0.7077,-0.7114,-0.7133,-0.7177,-0.7195,-0.7219,-0.7249,-0.7259,-0.7249,-0.7277,-0.7279,-0.727,-0.7261,-0.7246,-0.7244,-0.7267,-0.7267,-0.7267,-0.7257,0,-0.6806,-0.685,-0.689,-0.6919,-0.6945,-0.6988,-0.7008,-0.7044,-0.7074,-0.71,-0.7134,-0.7163,-0.7185,-0.72,-0.7212,-0.7248,-0.7248,-0.7249,-0.7285,-0.7285,-0.7271,-0.7243,-0.7227,-0.7216,-0.7257,-0.7257,-0.7257,0,-0.6798,-0.6833,-0.6864,-0.6917,-0.6929,-0.6946,-0.6986,-0.7011,-0.7052,-0.7074,-0.7102,-0.7133,-0.7158,-0.7175,-0.7211,-0.721,-0.7228,-0.7247,-0.7248,-0.7252,-0.7269,-0.7246,-0.7214,-0.7212,-0.7256,-0.7256,-0.7256,0,-0.6756,-0.6811,-0.6837,-0.6856,-0.6919,-0.693,-0.6956,-0.6998,-0.702,-0.7054,-0.7069,-0.7106,-0.7125,-0.7153,-0.7193,-0.7202,-0.7224,-0.7244,-0.7242,-0.7241,-0.7244,-0.7243,-0.7214,-0.7256,-0.7256,-0.7256,-0.7256,0,-0.6738,-0.6755,-0.6819,-0.6834,-0.6855,-0.6901,-0.692,-0.695,-0.6988,-0.7009,-0.7049,-0.7069,-0.7121,-0.7147,-0.7179,-0.7202,-0.7211,-0.7229,-0.7237,-0.7225,-0.7222,-0.7236,-0.7237,-0.7256,-0.7256,-0.7256,-0.7256,0,-0.6694,-0.6738,-0.6768,-0.6826,-0.684,-0.6853,-0.6901,-0.6918,-0.6951,-0.6978,-0.6987,-0.7038,-0.7071,-0.7114,-0.716,-0.7181,-0.72,-0.7214,-0.7186,-0.7191,-0.7186,-0.7185,-0.7163,-0.7162,-0.7206,-0.7205,-0.7205,0,-0.6679,-0.6693,-0.6752,-0.677,-0.6795,-0.6823,-0.6846,-0.6892,-0.6913,-0.6962,-0.6972,-0.7008,-0.7039,-0.7088,-0.7129,-0.7164,-0.7178,-0.7168,-0.7183,-0.7171,-0.7177,-0.7175,-0.7176,-0.7164,-0.7163,-0.7162,-0.7162,0,-0.6647,-0.6668,-0.6699,-0.6737,-0.6763,-0.6795,-0.6829,-0.6841,-0.6894,-0.6916,-0.695,-0.6974,-0.7021,-0.7055,-0.7096,-0.7123,-0.7151,-0.7157,-0.7158,-0.7145,-0.7128,-0.7137,-0.7175,-0.7157,-0.7157,-0.7158,-0.7158,-0.7158,-0.6617,-0.6632,-0.6675,-0.6708,-0.6739,-0.677,-0.6788,-0.6823,-0.6853,-0.6895,-0.692,-0.6953,-0.6994,-0.7051,-0.7077,-0.7103,-0.7114,-0.7115,-0.7116,-0.7115,-0.7111,-0.7125,-0.711,-0.7111,-0.7111,-0.7111,-0.7111,0,-0.6587,-0.6617,-0.6647,-0.6693,-0.6719,-0.6744,-0.6783,-0.6803,-0.6831,-0.6867,-0.6897,-0.6936,-0.6969,-0.7013,-0.705,-0.7062,-0.7075,-0.707,-0.7069,-0.7074,-0.7099,-0.7094,-0.7058,-0.7058,-0.7058,-0.7058,-0.7058,-0.7058,-0.6574,-0.66,-0.6626,-0.6667,-0.6698,-0.673,-0.675,-0.6778,-0.6808,-0.6849,-0.6878,-0.6906,-0.6945,-0.6985,-0.7017,-0.7029,-0.704,-0.703,-0.7046,-0.7068,-0.7073,-0.7077,-0.7073,-0.7032,-0.7032,-0.7019,-0.7018,-0.7018]}]]